Simultaneous Nadir Overpasses (SNOs) Predictions

Prediction of SNOs between GOES-16 and TERRA Satellite Orbit:

Table of predicted SNOs for the next 14.0 days since TLE Epoch: 5/18/2024
Index Date Time (GOES-16) GOES-16 Lat,Lon TERRA Lat,Lon Distance(km) Time Diff (sec)
1 05/20/2024 02:38:13 -0.05, -75.21 0.45, -72.78 275.64 80
2 05/20/2024 14:58:09 0.05, -75.22 0.54, -77.63 274.27 80
3 05/22/2024 14:43:29 0.05, -75.23 -0.30, -73.45 202.00 80
4 05/23/2024 03:03:34 -0.05, -75.23 -0.69, -78.34 353.23 80
5 05/25/2024 02:43:34 -0.04, -75.25 0.20, -74.16 123.40 80
6 05/25/2024 15:03:29 0.04, -75.25 0.82, -79.01 426.36 80
7 05/27/2024 14:48:48 0.03, -75.27 -0.08, -74.83 50.91 80
8 05/30/2024 02:51:31 -0.02, -75.30 -0.05, -75.52 25.36 80
9 06/01/2024 02:31:28 -0.02, -75.33 0.82, -71.33 454.37 80
